Regional Weather Roundup
Issued by NWS

Home | Current Version | Previous Version | Graphics & Text | Print | Product List | Glossary On
Versions: 1 2 3 4 5 6 7 8 9 10 11 12 13 14 15 16 17 18 19 20 21 22 23 24 25 26 27 28 29 30 31 32 33 34 35 36 37 38 39 40 41 42 43 44 45 46 47 48 49 50
621
ASUS43 KFSD 220902
RWRSD

WEATHER ROUNDUP FOR SOUTH DAKOTA
NATIONAL WEATHER SERVICE SIOUX FALLS SD
400 AM CDT SUN OCT 22 2017

NOTE: "FAIR" INDICATES FEW OR NO CLOUDS BELOW 12,000 FEET WITH NO
SIGNIFICANT WEATHER AND/OR OBSTRUCTIONS TO VISIBILITY.


SDZ001>005-009-010-012>017-221000-
NORTHWEST AND NORTH CENTRAL SOUTH DAKOTA

CITY           SKY/WX    TMP DP  RH WIND       PRES   REMARKS
BUFFALO          N/A     33  19  56 W8        29.85F WCI  26
MOBRIDGE       CLEAR     34  28  79 N6        29.90S WCI  29
$$

SDZ012>016-024>037-041>051-057-063-072>074-221000-
SOUTHWEST AND SOUTH CENTRAL SOUTH DAKOTA

CITY           SKY/WX    TMP DP  RH WIND       PRES   REMARKS
RAPID CTY ARPT CLEAR     31  16  54 W7        29.97F WCI  24
PIERRE         CLEAR     39  29  67 W10       29.96S
CUSTER         CLEAR     32  11  41 W7        29.98F WCI  26
ELLSWORTH AFB  CLEAR     31  16  54 W7        29.96F WCI  24
PHILIP         CLEAR     32  25  75 W5        29.99S WCI  27
PINE RIDGE     CLEAR     24  18  77 CALM      30.03S
SPEARFISH      FAIR      32  16  51 CALM      29.97S
WINNER         FAIR      38  27  64 SW8       30.02R
$$

SDZ004>011-016>023-039-040-221000-
NORTHEAST SOUTH DAKOTA

CITY           SKY/WX    TMP DP  RH WIND       PRES   REMARKS
ABERDEEN       CLEAR     34  31  88 SW6       29.91R WCI  29
WATERTOWN      CLEAR     39  35  86 W9        29.89F
BROOKINGS      CLEAR     41  35  79 W7        29.94R
SISSETON         N/A     47  36  65 W10       29.85F
$$

SDZ017-020-022-023-036>040-048>070-221000-
SOUTHEAST SOUTH DAKOTA

CITY           SKY/WX    TMP DP  RH WIND       PRES   REMARKS
SIOUX FALLS    CLEAR     39  35  86 CALM      29.97R
HURON          CLEAR     40  33  76 W9        29.95S
CHAMBERLAIN    CLEAR     37  31  81 SW3       29.99S
MITCHELL       CLEAR     42  33  70 W10       29.98S
YANKTON        CLEAR     39  34  82 CALM      30.00R
$$

ABBREVIATIONS USED IN REMARKS
   TC - TEMPERATURE IN CELSIUS
  WCI - WIND CHILL INDEX
   HX - HEAT INDEX
  VSB - VISIBILITY





USA.gov is the U.S. government's official web portal to all federal, state and local government web resources and services.